Home   Weather   Lae   Past weeks
Flag for Papua New Guinea

Past Weather in Lae, Papua New Guinea — Yesterday and Last 2 Weeks

Now
84 °F

Scattered clouds.


Feels Like: 96 °F
Forecast: 93 / 73 °F
Wind: 17 mph from Southeast

Location: Moresby

Current Time: Apr 23, 2019 at 8:15:52 pm

Latest Report: Apr 23, 2019 at 6:00 pm


Visibility: N/A

Pressure: 29.74 "Hg

Humidity: 84%

Dew Point: 79 °F

Location of LaeLocation

Past Weather in Lae — Graph

°F

Lae Temperature Yesterday

Maximum temperature yesterday: 90 °F (at 12:00 pm)
Minimum temperature yesterday: 75 °F (at 3:00 am)
Average temperature yesterday: 82 °F

High & Low Weather Summary for the Past Weeks

 TemperatureHumidityPressure
High90 °F (Apr 10, 12:00 pm)100% (Apr 9, 5:00 am)29.92 "Hg (Apr 9, 5:00 am)
Low72 °F (Apr 21, 6:00 am)55% (Apr 14, 1:00 pm)29.71 "Hg (Apr 11, 3:00 pm)
Average82 °F79%29.81 "Hg
* Reported Apr 9 12:00 am — Apr 23 6:00 pm, Lae. Weather by CustomWeather, © 2019

Note: Actual official high and low records may vary slightly from our data, if they occured in-between our weather recording intervals... More about our weather records

Advertising

Lae Weather History for the Previous 24 Hours

Scroll right to see more
 ConditionsComfort  
Time TempWeatherWind HumidityBarometerVisibility
6:00 pm
Tue, Apr 23
84 °FScattered clouds.17 mph84%29.74 "HgN/A
5:00 pm84 °FScattered clouds.20 mph84%29.74 "HgN/A
4:00 pm88 °FScattered clouds.21 mph75%29.71 "HgN/A
3:00 pm90 °FBroken clouds.17 mph71%29.71 "HgN/A
2:00 pm88 °FBroken clouds.12 mph70%29.74 "HgN/A
1:00 pm88 °FScattered clouds.5 mph70%29.74 "HgN/A
12:00 pm88 °FBroken clouds.6 mph66%29.80 "HgN/A
11:00 am86 °FBroken clouds.9 mph75%29.83 "HgN/A
10:00 am86 °FScattered clouds.9 mph75%29.86 "HgN/A
9:00 am84 °FScattered clouds.3 mph74%29.86 "HgN/A
8:00 am81 °FScattered clouds.3 mph89%29.83 "HgN/A
7:00 am75 °FScattered clouds.3 mph94%29.83 "HgN/A
6:00 am75 °FPassing clouds.3 mph94%29.80 "HgN/A
5:00 am77 °FPassing clouds.6 mph94%29.80 "HgN/A
4:00 am77 °FPassing clouds.3 mph94%29.77 "HgN/A
3:00 am77 °FPassing clouds.3 mph94%29.80 "HgN/A
1:00 am79 °FPassing clouds.6 mph89%29.80 "HgN/A
12:00 am79 °FPassing clouds.6 mph89%29.83 "HgN/A
Weather by CustomWeather, © 2019

See weather overview